PKPAS WIBB-WSSL

Flight info

Callsign PKPAS
Flight time 0h 58m
Altitude 25000
Route TAROS R469 BOBAG
Aircraft PC12/L-SDFGRWY/S

Departure

Time 2026-05-07 13:35
Airport Sultan Syarif Kasim II International Airport / Roesmin Nurjadin AFB (WIBB)

Arrival

Time 2026-05-07 14:33
Airport Seletar Airport (WSSL)
Time Latitude Longitude Altitude Speed Heading
2026-05-07 13:20 0.46555 101.44695 140 ft 0 kts 91°
2026-05-07 13:28 0.46555 101.44694 140 ft 0 kts 91°
2026-05-07 13:30 0.46559 101.44697 140 ft 2 kts 307°
2026-05-07 13:30 0.46557 101.44656 139 ft 8 kts 269°
2026-05-07 13:30 0.46565 101.44593 137 ft 10 kts 315°
2026-05-07 13:30 0.46625 101.44578 138 ft 9 kts 311°
2026-05-07 13:31 0.46635 101.44529 138 ft 6 kts 270°
2026-05-07 13:31 0.46636 101.44490 138 ft 6 kts 285°
2026-05-07 13:31 0.46668 101.44470 138 ft 7 kts 351°
2026-05-07 13:31 0.46725 101.44469 139 ft 11 kts
2026-05-07 13:32 0.46820 101.44472 140 ft 16 kts
2026-05-07 13:32 0.46939 101.44476 139 ft 18 kts
2026-05-07 13:32 0.47053 101.44497 138 ft 12 kts 14°
2026-05-07 13:32 0.47072 101.44479 138 ft 4 kts 191°
2026-05-07 13:33 0.47049 101.44478 139 ft 0 kts 181°
2026-05-07 13:34 0.46995 101.44477 139 ft 26 kts 181°
2026-05-07 13:34 0.46103 101.44451 151 ft 91 kts 183°
2026-05-07 13:34 0.45422 101.44428 238 ft 104 kts 182°
2026-05-07 13:35 0.44685 101.44400 487 ft 105 kts 183°
2026-05-07 13:35 0.43954 101.44373 679 ft 108 kts 182°
2026-05-07 13:35 0.43181 101.44346 902 ft 115 kts 182°
2026-05-07 13:35 0.42352 101.44314 1131 ft 124 kts 182°
2026-05-07 13:36 0.41437 101.44279 1386 ft 138 kts 182°
2026-05-07 13:36 0.40441 101.44332 1650 ft 150 kts 159°
2026-05-07 13:36 0.39678 101.45063 1897 ft 161 kts 114°
2026-05-07 13:36 0.39354 101.46163 2149 ft 170 kts 105°
2026-05-07 13:37 0.39056 101.47337 2395 ft 179 kts 106°
2026-05-07 13:37 0.38727 101.48561 2631 ft 186 kts 107°
2026-05-07 13:37 0.38379 101.49831 2881 ft 192 kts 107°
2026-05-07 13:37 0.38021 101.51139 3122 ft 197 kts 107°
2026-05-07 13:38 0.37656 101.52476 3364 ft 202 kts 107°
2026-05-07 13:38 0.37289 101.53820 3594 ft 204 kts 107°
2026-05-07 13:38 0.36913 101.55200 3834 ft 206 kts 107°
2026-05-07 13:38 0.36534 101.56589 4076 ft 208 kts 107°
2026-05-07 13:39 0.36329 101.58017 4322 ft 211 kts 89°
2026-05-07 13:39 0.36663 101.59449 4572 ft 213 kts 69°
2026-05-07 13:39 0.37244 101.60811 4808 ft 214 kts 68°
2026-05-07 13:39 0.37825 101.62183 5047 ft 215 kts 69°
2026-05-07 13:40 0.38406 101.63562 5285 ft 216 kts 69°
2026-05-07 13:40 0.38981 101.64926 5644 ft 211 kts 69°
2026-05-07 13:40 0.39549 101.66266 5995 ft 208 kts 69°
2026-05-07 13:40 0.40104 101.67584 6351 ft 205 kts 69°
2026-05-07 13:41 0.40647 101.68872 6689 ft 203 kts 69°
2026-05-07 13:41 0.41192 101.70164 7036 ft 200 kts 69°
2026-05-07 13:41 0.41729 101.71443 7385 ft 198 kts 69°
2026-05-07 13:41 0.42260 101.72708 7742 ft 197 kts 69°
2026-05-07 13:42 0.42789 101.73968 8101 ft 196 kts 68°
2026-05-07 13:42 0.43317 101.75225 8464 ft 196 kts 68°
2026-05-07 13:42 0.43843 101.76478 8830 ft 195 kts 68°
2026-05-07 13:42 0.44367 101.77725 9200 ft 194 kts 68°
2026-05-07 13:43 0.44889 101.78969 9577 ft 194 kts 68°
2026-05-07 13:43 0.45410 101.80209 9930 ft 193 kts 68°
2026-05-07 13:43 0.45927 101.81442 10270 ft 192 kts 68°
2026-05-07 13:43 0.46445 101.82675 10625 ft 191 kts 68°
2026-05-07 13:44 0.46959 101.83898 10967 ft 191 kts 68°
2026-05-07 13:44 0.47472 101.85120 11323 ft 190 kts 68°
2026-05-07 13:44 0.47984 101.86340 11680 ft 190 kts 68°
2026-05-07 13:44 0.48491 101.87547 12039 ft 190 kts 68°
2026-05-07 13:45 0.49002 101.88763 12406 ft 190 kts 68°
2026-05-07 13:45 0.49511 101.89976 12775 ft 189 kts 68°
2026-05-07 13:45 0.50018 101.91182 13153 ft 188 kts 68°
2026-05-07 13:45 0.50491 101.92395 13530 ft 186 kts 77°
2026-05-07 13:46 0.50684 101.93667 13876 ft 184 kts 82°
2026-05-07 13:46 0.50864 101.94932 14214 ft 183 kts 82°
2026-05-07 13:46 0.51049 101.96192 14554 ft 183 kts 82°
2026-05-07 13:46 0.51234 101.97447 14899 ft 182 kts 82°
2026-05-07 13:47 0.51417 101.98701 15244 ft 182 kts 82°
2026-05-07 13:47 0.51600 101.99952 15595 ft 182 kts 82°
2026-05-07 13:47 0.51782 102.01198 15954 ft 181 kts 82°
2026-05-07 13:47 0.51962 102.02427 16307 ft 180 kts 82°
2026-05-07 13:48 0.52143 102.03662 16672 ft 179 kts 82°
2026-05-07 13:48 0.52323 102.04892 17041 ft 178 kts 82°
2026-05-07 13:48 0.52502 102.06115 17415 ft 177 kts 82°
2026-05-07 13:48 0.52680 102.07331 17790 ft 176 kts 82°
2026-05-07 13:49 0.52856 102.08535 18144 ft 177 kts 82°
2026-05-07 13:49 0.53035 102.09762 18415 ft 179 kts 82°
2026-05-07 13:49 0.53215 102.10993 18696 ft 180 kts 82°
2026-05-07 13:49 0.53396 102.12232 18965 ft 181 kts 82°
2026-05-07 13:50 0.53578 102.13482 19227 ft 182 kts 82°
2026-05-07 13:50 0.53762 102.14740 19494 ft 183 kts 82°
2026-05-07 13:50 0.53946 102.16003 19762 ft 184 kts 82°
2026-05-07 13:50 0.54132 102.17275 20013 ft 186 kts 82°
2026-05-07 13:51 0.54319 102.18559 20266 ft 187 kts 82°
2026-05-07 13:51 0.54507 102.19848 20526 ft 188 kts 82°
2026-05-07 13:51 0.54695 102.21140 20789 ft 188 kts 82°
2026-05-07 13:51 0.54885 102.22440 21049 ft 189 kts 82°
2026-05-07 13:52 0.55075 102.23745 21299 ft 190 kts 82°
2026-05-07 13:52 0.55266 102.25054 21568 ft 191 kts 82°
2026-05-07 13:52 0.55456 102.26355 21804 ft 192 kts 82°
2026-05-07 13:52 0.55648 102.27675 22056 ft 192 kts 82°
2026-05-07 13:53 0.55841 102.29000 22307 ft 193 kts 82°
2026-05-07 13:53 0.56042 102.30326 22550 ft 194 kts 78°
2026-05-07 13:53 0.56575 102.31562 22800 ft 195 kts 56°
2026-05-07 13:53 0.57563 102.32499 23042 ft 200 kts 34°
2026-05-07 13:54 0.58875 102.32978 23279 ft 205 kts 11°
2026-05-07 13:54 0.60314 102.32877 23496 ft 212 kts 346°
2026-05-07 13:54 0.61648 102.32206 23672 ft 218 kts 332°
2026-05-07 13:54 0.62883 102.31327 23858 ft 220 kts 316°
2026-05-07 13:55 0.64123 102.30487 24018 ft 215 kts 348°
2026-05-07 13:55 0.65561 102.30509 24235 ft 205 kts 25°
2026-05-07 13:55 0.66646 102.31359 24434 ft 200 kts 60°
2026-05-07 13:55 0.67090 102.32645 24597 ft 201 kts 79°
2026-05-07 13:56 0.67522 102.33965 24779 ft 201 kts 60°
2026-05-07 13:56 0.68364 102.35121 24824 ft 212 kts 51°
2026-05-07 13:56 0.69037 102.35877 24828 ft 219 kts 49°
2026-05-07 13:56 0.70444 102.37398 24832 ft 231 kts 49°
2026-05-07 13:57 0.71191 102.38203 24832 ft 236 kts 49°
2026-05-07 13:57 0.72323 102.39423 24835 ft 243 kts 49°
2026-05-07 13:57 0.73485 102.40676 24835 ft 248 kts 49°
2026-05-07 13:57 0.74667 102.41953 24835 ft 252 kts 49°
2026-05-07 13:58 0.75859 102.43242 24833 ft 252 kts 49°
2026-05-07 13:58 0.76875 102.44637 24830 ft 248 kts 68°
2026-05-07 13:58 0.77179 102.46294 24836 ft 246 kts 86°
2026-05-07 13:58 0.77252 102.47997 24833 ft 246 kts 85°
2026-05-07 13:59 0.77493 102.49684 24834 ft 245 kts 76°
2026-05-07 13:59 0.77999 102.51307 24832 ft 245 kts 70°
2026-05-07 13:59 0.78592 102.52903 24830 ft 245 kts 70°
2026-05-07 13:59 0.79145 102.54517 24739 ft 249 kts 72°
2026-05-07 14:00 0.79687 102.56191 24528 ft 257 kts 72°
2026-05-07 14:00 0.80248 102.57908 24308 ft 263 kts 72°
2026-05-07 14:00 0.80830 102.59657 24088 ft 267 kts 72°
2026-05-07 14:00 0.81418 102.61422 23878 ft 267 kts 72°
2026-05-07 14:01 0.81989 102.63149 23667 ft 265 kts 72°
2026-05-07 14:01 0.82568 102.64900 23455 ft 264 kts 72°
2026-05-07 14:01 0.83144 102.66636 23203 ft 262 kts 72°
2026-05-07 14:01 0.83717 102.68363 22945 ft 261 kts 72°
2026-05-07 14:02 0.84288 102.70086 22695 ft 260 kts 72°
2026-05-07 14:02 0.84856 102.71800 22443 ft 259 kts 72°
2026-05-07 14:02 0.85423 102.73511 22189 ft 258 kts 72°
2026-05-07 14:02 0.85986 102.75210 21942 ft 258 kts 72°
2026-05-07 14:03 0.86554 102.76920 21693 ft 259 kts 72°
2026-05-07 14:03 0.87221 102.78593 21456 ft 259 kts 60°
2026-05-07 14:03 0.88292 102.80054 21218 ft 260 kts 52°
2026-05-07 14:03 0.89464 102.81439 20983 ft 262 kts 51°
2026-05-07 14:04 0.90643 102.82818 20747 ft 267 kts 51°
2026-05-07 14:04 0.91857 102.84244 20509 ft 271 kts 51°
2026-05-07 14:04 0.93072 102.85704 20275 ft 276 kts 52°
2026-05-07 14:04 0.94304 102.87195 20044 ft 280 kts 52°
2026-05-07 14:05 0.95549 102.88704 19815 ft 283 kts 52°
2026-05-07 14:05 0.96807 102.90231 19590 ft 285 kts 52°
2026-05-07 14:05 0.98072 102.91769 19360 ft 286 kts 52°
2026-05-07 14:05 0.99321 102.93289 19135 ft 287 kts 52°
2026-05-07 14:06 1.00588 102.94833 18918 ft 286 kts 52°
2026-05-07 14:06 1.01849 102.96369 18695 ft 285 kts 52°
2026-05-07 14:06 1.03097 102.97887 18475 ft 284 kts 52°
2026-05-07 14:06 1.04354 102.99416 18254 ft 283 kts 52°
2026-05-07 14:07 1.05603 103.00934 18019 ft 283 kts 52°
2026-05-07 14:07 1.06850 103.02453 17769 ft 283 kts 52°
2026-05-07 14:07 1.08096 103.03970 17513 ft 282 kts 52°
2026-05-07 14:07 1.09340 103.05486 17264 ft 282 kts 52°
2026-05-07 14:08 1.10584 103.07004 17019 ft 282 kts 52°
2026-05-07 14:08 1.11827 103.08520 16775 ft 282 kts 52°
2026-05-07 14:08 1.13079 103.10030 16528 ft 282 kts 51°
2026-05-07 14:08 1.14348 103.11533 16283 ft 282 kts 51°
2026-05-07 14:09 1.15618 103.13031 16044 ft 282 kts 51°
2026-05-07 14:09 1.16871 103.14507 15849 ft 279 kts 51°
2026-05-07 14:09 1.18110 103.15966 15849 ft 275 kts 51°
2026-05-07 14:09 1.19365 103.17441 15848 ft 272 kts 51°
2026-05-07 14:10 1.20566 103.18854 15843 ft 270 kts 51°
2026-05-07 14:10 1.21777 103.20279 15841 ft 268 kts 51°
2026-05-07 14:10 1.22980 103.21694 15848 ft 267 kts 51°
2026-05-07 14:10 1.24181 103.23107 15847 ft 266 kts 51°
2026-05-07 14:11 1.25376 103.24512 15847 ft 265 kts 51°
2026-05-07 14:11 1.26571 103.25917 15848 ft 265 kts 51°
2026-05-07 14:11 1.27766 103.27321 15848 ft 264 kts 51°
2026-05-07 14:11 1.28969 103.28737 15555 ft 275 kts 51°
2026-05-07 14:12 1.30219 103.30214 15082 ft 277 kts 51°
2026-05-07 14:12 1.31450 103.31672 14626 ft 274 kts 51°
2026-05-07 14:12 1.32677 103.33126 14170 ft 272 kts 51°
2026-05-07 14:12 1.33897 103.34572 13724 ft 271 kts 51°
2026-05-07 14:13 1.35107 103.36009 13229 ft 270 kts 51°
2026-05-07 14:13 1.36309 103.37438 12858 ft 265 kts 51°
2026-05-07 14:13 1.37474 103.38821 12855 ft 259 kts 51°
2026-05-07 14:13 1.38636 103.40198 12855 ft 259 kts 51°
2026-05-07 14:14 1.39784 103.41559 12860 ft 259 kts 51°
2026-05-07 14:14 1.40950 103.42941 12863 ft 260 kts 51°
2026-05-07 14:14 1.42115 103.44323 12863 ft 260 kts 51°
2026-05-07 14:14 1.43281 103.45704 12866 ft 260 kts 51°
2026-05-07 14:15 1.44449 103.47089 12728 ft 263 kts 51°
2026-05-07 14:15 1.45634 103.48502 12232 ft 266 kts 51°
2026-05-07 14:15 1.46822 103.49929 11753 ft 266 kts 52°
2026-05-07 14:15 1.47620 103.51581 11272 ft 265 kts 74°
2026-05-07 14:16 1.48014 103.53381 10805 ft 265 kts 79°
2026-05-07 14:16 1.48324 103.55202 10346 ft 266 kts 81°
2026-05-07 14:16 1.48618 103.57027 9892 ft 266 kts 81°
2026-05-07 14:16 1.48904 103.58813 9421 ft 266 kts 81°
2026-05-07 14:17 1.49197 103.60640 8922 ft 264 kts 81°
2026-05-07 14:17 1.49489 103.62448 8428 ft 260 kts 81°
2026-05-07 14:17 1.49778 103.64230 7943 ft 257 kts 81°
2026-05-07 14:17 1.50064 103.65982 7469 ft 255 kts 81°
2026-05-07 14:18 1.50350 103.67725 7048 ft 251 kts 81°
2026-05-07 14:18 1.50623 103.69380 7021 ft 231 kts 81°
2026-05-07 14:18 1.50880 103.70923 7021 ft 223 kts 81°
2026-05-07 14:18 1.51143 103.72477 7023 ft 231 kts 81°
2026-05-07 14:19 1.51414 103.74079 7023 ft 237 kts 81°
2026-05-07 14:19 1.51692 103.75719 7024 ft 241 kts 81°
2026-05-07 14:19 1.51856 103.77335 7021 ft 241 kts 90°
2026-05-07 14:19 1.51893 103.79077 6743 ft 246 kts 89°
2026-05-07 14:20 1.51940 103.80792 6283 ft 247 kts 90°
2026-05-07 14:20 1.51958 103.82508 5797 ft 247 kts 90°
2026-05-07 14:20 1.51972 103.84207 5321 ft 248 kts 90°
2026-05-07 14:20 1.51988 103.85934 4848 ft 248 kts 90°
2026-05-07 14:21 1.52005 103.87653 4364 ft 247 kts 90°
2026-05-07 14:21 1.52023 103.89369 3879 ft 247 kts 90°
2026-05-07 14:21 1.52040 103.91081 3402 ft 245 kts 90°
2026-05-07 14:21 1.52404 103.92716 2941 ft 243 kts 62°
2026-05-07 14:22 1.53523 103.93911 2702 ft 232 kts 32°
2026-05-07 14:22 1.55046 103.94381 2470 ft 229 kts
2026-05-07 14:22 1.56612 103.94315 2231 ft 224 kts 348°
2026-05-07 14:22 1.58134 103.94006 1989 ft 223 kts 348°
2026-05-07 14:23 1.59652 103.93690 1751 ft 223 kts 348°
2026-05-07 14:23 1.61169 103.93399 1506 ft 220 kts 355°
2026-05-07 14:23 1.62606 103.93700 1483 ft 208 kts 30°
2026-05-07 14:23 1.63532 103.94729 1487 ft 197 kts 68°
2026-05-07 14:24 1.63613 103.96037 1484 ft 188 kts 108°
2026-05-07 14:24 1.62875 103.97028 1485 ft 180 kts 148°
2026-05-07 14:24 1.61693 103.97266 1493 ft 175 kts 191°
2026-05-07 14:24 1.60617 103.96755 1500 ft 170 kts 212°
2026-05-07 14:25 1.59632 103.96105 1504 ft 168 kts 213°
2026-05-07 14:25 1.58661 103.95461 1501 ft 167 kts 212°
2026-05-07 14:25 1.57689 103.94834 1498 ft 165 kts 212°
2026-05-07 14:25 1.56729 103.94217 1495 ft 163 kts 212°
2026-05-07 14:26 1.55778 103.93606 1503 ft 162 kts 212°
2026-05-07 14:26 1.54829 103.92994 1499 ft 161 kts 212°
2026-05-07 14:26 1.53897 103.92392 1509 ft 162 kts 212°
2026-05-07 14:26 1.52946 103.91779 1504 ft 162 kts 212°
2026-05-07 14:27 1.52001 103.91171 1506 ft 161 kts 212°
2026-05-07 14:27 1.51058 103.90565 1499 ft 161 kts 212°
2026-05-07 14:27 1.50121 103.89960 1507 ft 161 kts 212°
2026-05-07 14:27 1.49183 103.89354 1507 ft 160 kts 212°
2026-05-07 14:28 1.48248 103.88747 1505 ft 160 kts 212°
2026-05-07 14:28 1.47312 103.88141 1510 ft 160 kts 212°
2026-05-07 14:28 1.46345 103.87595 1509 ft 159 kts 204°
2026-05-07 14:28 1.45329 103.87138 1499 ft 160 kts 203°
2026-05-07 14:29 1.44330 103.86681 1506 ft 157 kts 206°
2026-05-07 14:29 1.43411 103.86114 1503 ft 155 kts 213°
2026-05-07 14:29 1.42526 103.85518 1515 ft 150 kts 213°
2026-05-07 14:29 1.41687 103.84955 1510 ft 141 kts 212°
2026-05-07 14:30 1.40885 103.84429 1505 ft 137 kts 212°
2026-05-07 14:30 1.40102 103.83917 1502 ft 132 kts 212°
2026-05-07 14:30 1.39339 103.83418 1504 ft 130 kts 212°
2026-05-07 14:30 1.38597 103.82933 1505 ft 130 kts 212°
2026-05-07 14:31 1.37770 103.82556 1371 ft 129 kts 179°
2026-05-07 14:31 1.37059 103.82936 1241 ft 111 kts 118°
2026-05-07 14:31 1.37114 103.83634 1082 ft 107 kts 49°
2026-05-07 14:31 1.37696 103.84085 894 ft 106 kts 34°
2026-05-07 14:32 1.38300 103.84504 706 ft 102 kts 33°
2026-05-07 14:32 1.38868 103.84896 581 ft 96 kts 32°
2026-05-07 14:32 1.39417 103.85267 439 ft 95 kts 33°
2026-05-07 14:32 1.39954 103.85624 333 ft 93 kts 32°
2026-05-07 14:33 1.40484 103.85971 209 ft 89 kts 31°
2026-05-07 14:33 1.40994 103.86308 70 ft 86 kts 32°
2026-05-07 14:33 1.41445 103.86601 52 ft 64 kts 34°
2026-05-07 14:33 1.41649 103.86735 51 ft 26 kts 33°
2026-05-07 14:34 1.41698 103.86822 51 ft 13 kts 122°
2026-05-07 14:34 1.41663 103.86874 51 ft 8 kts 123°
2026-05-07 14:34 1.41623 103.86903 51 ft 7 kts 188°
2026-05-07 14:34 1.41580 103.86879 51 ft 7 kts 213°
2026-05-07 14:35 1.41536 103.86851 51 ft 8 kts 213°
2026-05-07 14:35 1.41486 103.86818 51 ft 9 kts 213°
2026-05-07 14:35 1.41434 103.86787 51 ft 7 kts 178°
2026-05-07 14:35 1.41407 103.86816 51 ft 5 kts 123°
2026-05-07 14:36 1.41383 103.86842 51 ft 4 kts 179°
2026-05-07 14:36 1.41372 103.86836 51 ft 0 kts 215°